Weather in Civril

Turkey     38°18′04″N   29°44′19″E
temp.,
°C
wind,
m/s
gust,
m/s
humid.,
%
clouds,
%
prec.,
mm/h
press.,
hPa
HPBL,
m
6 august, fri
fri600:00+26ne45220 0.0 100858
03:00+23nne12270 0.0 100811
06:00+21e11300 0.0 100811
09:00+28s11200 0.0 1007309
12:00+35wsw32120 0.0 10051971
15:00+37w45811 0.0 10024442
18:00+36w488100 0.0 10004819
21:00+29nne2215100 0.0 100216
7 august, sat
sat700:00+26nw222052 0.0 100318
03:00+22nw33364 0.0 100334
06:00+20nw22440 0.0 100411
09:00+25wnw56390 0.0 1005709
12:00+30wnw64280 0.0 10042038
15:00+32wnw76195 0.0 10023468
18:00+26nne711385 0.1 10061139
21:00+22ne59510 0.1 1009387
8 august, sun
sun800:00+18nne34710 0.0 101176
03:00+17nne22780 0.0 101124
06:00+15nne22840 0.0 101223
09:00+21nne12550 0.0 1013711
12:00+28ene23320 0.0 10111905
15:00+32ne34230 0.0 10102827
18:00+33n44210 0.0 10093059
21:00+26ne56350 0.0 101185
9 august, mon
mon900:00+22ne58560 0.0 1014135
03:00+20nne34640 0.0 101455
06:00+18ne33670 0.0 101426
09:00+24ne22420 0.0 1014617
12:00+30nne23230 0.0 10132095
15:00+34nne55160 0.0 10103080
18:00+34nne75140 0.0 10102978
21:00+25ne58240 0.0 1012118
10 august, tue
tue1000:00+22ne46370 0.0 101371
03:00+20ne33460 0.0 101333
06:00+19ne33510 0.0 101329
09:00+25ne22360 0.0 1013539
12:00+31ne13220 0.0 10112598
15:00+34ene33163 0.0 10093463
18:00+34ene34165 0.0 10083618
21:00+26ne45260 0.0 100963